Location: Zagreb
(45.8000°N, 16.0000°E)
Time: 20:54:55
(UTC+01:00)

deb Explorer IX - Pass Details

Date: 03 October 2020
Orbit: 537 x 1106 km, 38.8° (Epoch: 30 October)

Event Time Altitude Azimuth Distance (km) Brightness Sun altitude
Rises 15:11:06 0° 205° (SSW) 3,520 ? 30.3°
Reaches altitude 10° 15:15:08 10° 181° (S) 2,444 ? 29.8°
Maximum altitude 15:17:54 14° 152° (SSE) 2,091 ? 29.5°
Drops below altitude 10° 15:20:31 10° 122° (ESE) 2,253 ? 29.2°
Sets 15:23:57 0° 97° (E) 3,050 ? 28.7°
